�N����,����,�~����,�C��,���x,�C��,����,���ϕ���,�ő�u�ԕ���,�ő厞����,���˗�,�I�_���x,�n�����x,�ő啗���N��,DTYPE
"21/10/22","00:10",0.0,10.7,89.7,1013.0,323.0,2.2,4.4,346.0,0.00,9.1,16.8,"00:07:44",1
"21/10/22","00:20",0.0,10.8,89.4,1012.6,323.1,1.8,3.4,329.6,0.00,9.2,16.5,"00:10:32",1
"21/10/22","00:30",0.0,10.6,89.4,1012.8,332.6,2.0,2.8,333.7,0.00,9.0,16.6,"00:22:00",1
"21/10/22","00:40",0.0,10.6,89.5,1012.3,330.8,1.8,3.2,309.8,0.00,9.0,16.5,"00:37:04",1
"21/10/22","00:50",0.0,10.7,89.3,1012.6,333.8,1.8,3.3,325.6,0.00,9.1,16.6,"00:42:32",1
"21/10/22","01:00",0.0,10.6,89.1,1012.1,339.9,1.5,2.6,331.6,0.00,8.9,16.5,"00:50:32",1
"21/10/22","01:10",0.0,10.6,89.0,1012.1,331.8,1.5,3.5,333.1,0.00,8.9,16.6,"01:04:32",1
"21/10/22","01:20",0.0,10.6,88.8,1012.8,322.8,1.3,2.1,351.7,0.00,8.9,16.3,"01:13:36",1
"21/10/22","01:30",0.0,10.6,88.7,1012.3,326.0,1.6,2.2,330.1,0.00,8.9,16.5,"01:27:04",1
"21/10/22","01:40",0.0,10.6,88.7,1012.1,338.5,1.3,2.5,324.7,0.00,8.9,16.4,"01:30:48",1
"21/10/22","01:50",0.0,10.5,88.6,1012.1,289.6,0.8,1.4,291.4,0.00,8.7,16.4,"01:47:36",1
"21/10/22","02:00",0.0,10.5,88.8,1011.9,324.2,1.6,2.4,336.0,0.00,8.8,16.4,"01:58:56",1
"21/10/22","02:10",0.0,10.5,88.8,1011.9,309.7,0.7,1.7,318.1,0.00,8.8,16.3,"02:00:08",1
"21/10/22","02:20",0.0,10.3,88.9,1011.6,302.3,1.0,1.7,321.5,0.00,8.6,16.4,"02:13:12",1
"21/10/22","02:30",0.0,10.2,89.0,1011.6,317.5,1.6,2.1,333.8,0.00,8.5,16.2,"02:21:12",1
"21/10/22","02:40",0.0,10.0,89.2,1011.9,292.1,0.6,1.3,291.5,0.00,8.3,16.2,"02:30:16",1
"21/10/22","02:50",0.0,10.1,89.7,1011.6,323.2,1.6,2.7,340.4,0.00,8.5,16.2,"02:49:52",1
"21/10/22","03:00",0.0,10.3,90.0,1011.6,324.7,2.1,3.6,340.2,0.00,8.8,16.2,"02:59:44",1
"21/10/22","03:10",0.0,10.3,90.1,1011.2,332.3,1.8,2.9,342.7,0.00,8.8,16.1,"03:09:20",1
"21/10/22","03:20",0.0,10.1,90.3,1011.4,321.6,1.7,2.5,322.3,0.00,8.6,16.4,"03:12:24",1
"21/10/22","03:30",0.0,10.1,90.6,1011.2,316.2,1.5,2.2,320.0,0.00,8.7,16.3,"03:23:28",1
"21/10/22","03:40",0.0,10.1,90.6,1010.9,343.8,1.7,3.1,329.9,0.00,8.7,16.4,"03:38:56",1
"21/10/22","03:50",0.0,10.0,90.6,1010.9,327.2,2.1,3.1,329.2,0.00,8.6,16.3,"03:47:04",1
"21/10/22","04:00",0.0,10.0,90.7,1011.4,324.2,1.7,2.6,329.2,0.00,8.6,16.3,"03:53:52",1
"21/10/22","04:10",0.0,10.0,90.8,1011.4,332.6,1.5,2.2,328.9,0.00,8.6,16.2,"04:01:04",1
"21/10/22","04:20",0.0,9.9,90.8,1011.4,327.5,1.7,2.5,331.2,0.00,8.5,16.2,"04:19:20",1
"21/10/22","04:30",0.0,9.9,91.0,1011.6,323.4,2.3,3.4,342.1,0.00,8.5,16.1,"04:25:20",1
"21/10/22","04:40",0.0,9.9,91.0,1010.9,334.1,2.0,3.1,339.0,0.00,8.5,16.2,"04:32:40",1
"21/10/22","04:50",0.0,10.0,91.1,1011.4,323.1,2.1,3.4,338.2,0.00,8.7,16.1,"04:44:24",1
"21/10/22","05:00",0.0,9.9,91.0,1011.2,339.6,1.7,2.9,342.3,0.00,8.5,16.2,"04:56:00",1
"21/10/22","05:10",0.0,9.8,90.8,1011.6,334.5,1.8,3.4,340.7,0.00,8.4,16.2,"05:02:24",1
"21/10/22","05:20",0.0,9.9,90.7,1011.4,308.8,1.8,2.6,333.0,0.00,8.5,15.9,"05:12:56",1
"21/10/22","05:30",0.0,9.8,90.4,1011.4,319.6,2.6,4.1,335.1,0.00,8.3,16.2,"05:28:56",1
"21/10/22","05:40",0.0,9.8,90.2,1011.4,334.6,2.0,4.1,351.3,0.00,8.3,16.1,"05:36:00",1
"21/10/22","05:50",0.0,9.8,90.1,1011.4,334.1,2.2,3.9,346.4,0.00,8.3,16.0,"05:42:48",1
"21/10/22","06:00",0.0,9.7,89.9,1011.2,306.5,1.2,2.4,320.9,0.00,8.2,16.0,"05:51:36",1
"21/10/22","06:10",0.0,9.3,89.9,1011.4,338.3,1.0,1.9,323.2,0.00,7.8,16.2,"06:03:28",1
"21/10/22","06:20",0.0,9.1,90.0,1011.6,333.5,1.0,2.2,315.4,0.00,7.6,16.1,"06:19:36",1
"21/10/22","06:30",0.0,8.8,90.2,1011.6,304.7,1.6,3.2,323.0,0.00,7.3,16.0,"06:21:52",1
"21/10/22","06:40",0.0,8.5,90.3,1011.4,288.6,0.8,1.7,255.8,0.00,7.0,16.1,"06:31:28",1
"21/10/22","06:50",0.0,8.5,90.9,1011.2,314.1,2.0,3.3,333.0,0.00,7.1,16.0,"06:45:36",1
"21/10/22","07:00",0.0,9.0,91.3,1011.2,322.6,2.6,4.1,326.6,0.00,7.7,15.9,"06:52:24",1
"21/10/22","07:10",0.0,9.1,91.5,1011.4,314.4,2.3,4.3,329.3,0.00,7.8,15.9,"07:02:40",1
"21/10/22","07:20",0.0,9.1,91.8,1011.2,311.3,2.0,3.4,327.5,0.00,7.9,15.8,"07:17:44",1
"21/10/22","07:30",0.0,9.7,92.1,1011.2,325.9,2.6,3.9,336.5,0.02,8.5,15.9,"07:22:08",1
"21/10/22","07:40",0.0,10.1,91.9,1011.4,319.3,2.2,4.0,334.9,0.03,8.9,15.8,"07:34:40",1
"21/10/22","07:50",0.0,10.4,91.8,1011.6,321.8,1.3,2.2,322.0,0.03,9.2,15.9,"07:44:16",1
"21/10/22","08:00",0.0,11.2,91.6,1012.1,324.7,1.5,2.7,343.6,0.08,9.9,15.7,"07:53:04",1
"21/10/22","08:10",0.0,12.1,90.6,1012.1,337.2,1.1,2.8,336.0,0.11,10.7,15.6,"08:09:44",1
"21/10/22","08:20",0.0,12.5,89.4,1012.3,288.4,1.3,2.6,339.1,0.13,10.8,15.7,"08:10:32",1
"21/10/22","08:30",0.0,13.1,87.4,1012.1,238.7,0.3,0.9,214.3,0.16,11.1,15.7,"08:22:48",1
"21/10/22","08:40",0.0,13.9,85.5,1012.3,205.3,0.5,1.1,130.8,0.19,11.6,15.7,"08:37:52",1
"21/10/22","08:50",0.0,13.8,82.3,1011.9,225.2,0.8,2.1,202.7,0.22,10.9,15.9,"08:44:00",1
"21/10/22","09:00",0.0,14.5,79.8,1012.1,209.6,0.6,2.1,226.5,0.24,11.1,16.0,"08:52:08",1
"21/10/22","09:10",0.0,15.0,77.2,1011.9,227.0,0.6,1.9,148.1,0.27,11.1,15.7,"09:03:12",1
"21/10/22","09:20",0.0,15.3,75.0,1011.6,236.7,0.8,2.4,214.6,0.29,10.9,15.9,"09:17:36",1
"21/10/22","09:30",0.0,15.5,73.4,1011.6,177.9,0.7,1.9,223.1,0.27,10.8,16.0,"09:20:16",1
"21/10/22","09:40",0.0,15.7,71.5,1011.6,152.7,0.8,2.4,116.5,0.33,10.6,15.9,"09:35:20",1
"21/10/22","09:50",0.0,16.0,70.4,1011.4,154.9,1.0,2.4,213.8,0.35,10.7,16.0,"09:49:20",1
"21/10/22","10:00",0.0,16.5,69.6,1011.2,207.4,1.0,2.7,194.3,0.37,11.0,16.1,"09:54:24",1
"21/10/22","10:10",0.0,16.8,67.5,1011.4,111.1,1.0,2.4,110.0,0.37,10.8,16.3,"10:00:16",1
"21/10/22","10:20",0.0,17.3,66.3,1010.9,190.8,0.7,2.0,102.3,0.37,11.0,16.1,"10:12:56",1
"21/10/22","10:30",0.0,17.6,64.9,1010.2,202.8,0.6,1.7,178.4,0.38,11.0,16.5,"10:20:48",1
"21/10/22","10:40",0.0,17.9,62.4,1010.2,292.4,0.6,1.7,38.1,0.36,10.7,16.3,"10:30:24",1
"21/10/22","10:50",0.0,18.4,59.9,1009.7,164.6,0.7,2.0,154.6,0.46,10.5,16.5,"10:49:12",1
"21/10/22","11:00",0.0,18.7,58.4,1009.7,74.6,0.7,1.9,40.7,0.47,10.4,16.3,"10:58:08",1
"21/10/22","11:10",0.0,18.7,57.2,1009.5,232.5,1.0,2.2,331.4,0.47,10.1,16.7,"11:07:04",1
"21/10/22","11:20",0.0,19.0,55.8,1009.0,218.0,1.0,2.5,198.0,0.48,10.0,16.6,"11:19:52",1
"21/10/22","11:30",0.0,19.3,55.2,1009.0,157.8,1.0,2.6,119.7,0.49,10.1,16.8,"11:25:36",1
"21/10/22","11:40",0.0,19.3,55.0,1009.3,172.6,1.1,2.6,121.8,0.49,10.1,16.9,"11:32:56",1
"21/10/22","11:50",0.0,19.4,54.3,1008.8,249.7,1.2,3.9,233.0,0.50,10.0,17.0,"11:42:16",1
"21/10/22","12:00",0.0,19.8,53.4,1008.8,210.8,1.2,2.9,237.0,0.50,10.1,17.1,"11:51:44",1
"21/10/22","12:10",0.0,19.8,52.4,1008.6,208.5,1.6,3.9,218.6,0.48,9.8,17.3,"12:02:56",1
"21/10/22","12:20",0.0,19.3,53.1,1008.3,231.5,1.5,3.3,241.4,0.33,9.6,17.3,"12:14:00",1
"21/10/22","12:30",0.0,18.6,56.8,1008.1,212.4,1.2,3.4,227.9,0.22,9.9,17.3,"12:21:44",1
"21/10/22","12:40",0.0,20.0,54.4,1008.1,201.9,1.3,3.2,206.9,0.47,10.6,17.5,"12:39:12",1
"21/10/22","12:50",0.0,19.9,52.5,1007.8,195.4,1.1,4.2,240.8,0.37,9.9,17.6,"12:49:44",1
"21/10/22","13:00",0.0,20.4,51.0,1007.6,190.2,1.2,2.8,222.3,0.46,10.0,17.7,"12:57:04",1
"21/10/22","13:10",0.0,20.3,47.3,1007.6,199.6,1.8,3.9,226.7,0.50,8.8,17.7,"13:07:28",1
"21/10/22","13:20",0.0,20.8,47.7,1006.9,167.9,2.0,4.5,201.3,0.52,9.3,17.9,"13:13:28",1
"21/10/22","13:30",0.0,21.3,46.2,1006.9,181.1,1.6,4.1,220.5,0.53,9.3,18.0,"13:21:36",1
"21/10/22","13:40",0.0,21.4,45.0,1007.1,189.8,1.3,4.2,201.4,0.37,9.0,18.0,"13:30:48",1
"21/10/22","13:50",0.0,21.4,43.7,1006.9,60.5,1.2,3.6,97.5,0.36,8.6,18.1,"13:41:20",1
"21/10/22","14:00",0.0,20.3,47.9,1006.9,354.8,1.3,3.2,346.3,0.17,9.0,18.2,"13:52:56",1
"21/10/22","14:10",0.0,21.6,44.7,1006.4,323.1,1.1,2.8,344.2,0.43,9.1,18.2,"14:06:00",1
"21/10/22","14:20",0.0,21.8,43.2,1006.7,284.3,1.7,4.7,238.6,0.43,8.8,18.5,"14:16:16",1
"21/10/22","14:30",0.0,21.6,43.3,1006.9,309.1,1.8,5.2,338.6,0.39,8.6,18.4,"14:27:20",1
"21/10/22","14:40",0.0,22.0,43.6,1006.4,329.3,1.6,3.5,323.7,0.42,9.1,18.5,"14:35:20",1
"21/10/22","14:50",0.0,20.6,43.6,1006.9,333.1,1.7,3.2,322.2,0.16,7.8,18.5,"14:44:56",1
"21/10/22","15:00",0.0,20.8,42.7,1006.7,344.3,2.2,4.4,344.9,0.31,7.7,18.6,"14:53:20",1
"21/10/22","15:10",0.0,21.1,43.2,1006.9,352.0,1.3,2.4,337.5,0.21,8.2,18.7,"15:05:44",1
"21/10/22","15:20",0.0,21.2,43.2,1006.7,311.0,1.8,3.9,336.1,0.25,8.2,18.6,"15:18:24",1
"21/10/22","15:30",0.0,20.4,46.0,1006.9,270.1,1.8,5.5,331.8,0.17,8.4,18.7,"15:23:20",1
"21/10/22","15:40",0.0,20.7,46.0,1007.1,264.1,1.7,4.4,237.4,0.20,8.7,18.7,"15:39:52",1
"21/10/22","15:50",0.0,19.8,47.5,1007.1,302.3,1.8,4.0,230.2,0.09,8.4,18.8,"15:47:28",1
"21/10/22","16:00",0.0,19.1,52.0,1007.8,297.2,1.5,3.2,265.4,0.07,9.1,18.8,"15:59:44",1
"21/10/22","16:10",0.0,19.3,53.8,1007.4,286.8,1.7,4.2,236.8,0.11,9.8,18.8,"16:04:40",1
"21/10/22","16:20",0.0,19.1,55.5,1007.6,285.7,1.8,4.1,351.4,0.08,10.0,18.7,"16:13:04",1
"21/10/22","16:30",0.0,19.1,57.5,1007.8,287.4,1.5,3.5,248.7,0.08,10.6,18.7,"16:24:48",1
"21/10/22","16:40",0.0,18.1,60.4,1007.6,281.8,1.6,4.4,337.7,0.01,10.4,18.8,"16:35:44",1
"21/10/22","16:50",0.0,17.4,62.9,1007.8,312.5,1.5,3.7,328.6,0.00,10.3,18.8,"16:46:32",1
"21/10/22","17:00",0.0,17.0,65.1,1007.8,307.1,1.3,2.6,328.7,0.00,10.4,18.7,"16:56:08",1
"21/10/22","17:10",0.0,16.6,67.1,1007.6,298.8,1.6,3.7,299.9,0.00,10.5,18.8,"17:09:12",1
"21/10/22","17:20",0.0,16.2,68.6,1008.1,294.7,1.3,3.1,263.3,0.00,10.5,18.9,"17:19:36",1
"21/10/22","17:30",0.0,16.0,69.6,1008.1,309.7,2.1,5.7,348.2,0.00,10.5,18.8,"17:27:44",1
"21/10/22","17:40",0.0,15.7,70.4,1008.1,310.6,1.8,4.0,283.1,0.00,10.4,18.6,"17:38:56",1
"21/10/22","17:50",0.0,15.3,71.4,1008.3,311.9,2.1,5.5,348.9,0.00,10.2,18.5,"17:46:48",1
"21/10/22","18:00",0.0,15.1,72.3,1008.3,320.1,2.5,5.0,336.3,0.00,10.2,18.5,"17:57:30",1
"21/10/22","18:10",0.0,14.8,73.1,1008.6,315.9,1.7,3.3,316.6,0.00,10.1,18.7,"18:01:04",1
"21/10/22","18:20",0.0,14.5,74.3,1008.6,310.2,1.6,3.6,320.3,0.00,10.0,18.7,"18:15:20",1
"21/10/22","18:30",0.0,14.3,75.1,1008.6,318.5,1.8,4.9,348.8,0.00,10.0,18.4,"18:28:58",1
"21/10/22","18:40",0.0,14.3,75.8,1009.0,321.8,2.2,3.6,332.4,0.00,10.1,18.5,"18:30:08",1
"21/10/22","18:50",0.0,14.2,76.6,1009.3,329.9,2.2,4.1,330.3,0.00,10.2,18.7,"18:40:52",1
"21/10/22","19:00",0.0,14.0,77.3,1009.0,316.4,2.0,3.9,334.5,0.00,10.1,18.3,"18:54:36",1
"21/10/22","19:10",0.0,13.9,78.1,1009.0,312.5,2.1,4.2,349.2,0.00,10.2,18.1,"19:09:54",1
"21/10/22","19:20",0.0,13.7,78.6,1009.5,316.5,1.8,3.6,286.3,0.00,10.1,18.2,"19:11:02",1
"21/10/22","19:30",0.0,13.6,78.7,1009.7,322.4,1.3,2.8,341.7,0.00,10.0,18.2,"19:21:36",1
"21/10/22","19:40",0.0,13.6,78.6,1010.0,322.8,1.7,4.2,336.0,0.00,10.0,18.2,"19:35:48",1
"21/10/22","19:50",0.0,13.3,78.7,1010.2,299.7,1.1,2.2,332.3,0.00,9.7,18.2,"19:42:48",1
"21/10/22","20:00",0.0,13.2,78.8,1010.2,308.0,1.2,1.8,318.7,0.00,9.6,18.1,"19:51:40",1
"21/10/22","20:10",0.0,13.3,78.2,1010.2,328.0,1.8,3.5,302.9,0.00,9.6,18.1,"20:06:02",1
"21/10/22","20:20",0.0,13.5,76.4,1010.4,331.4,2.0,3.5,327.1,0.00,9.5,18.1,"20:10:20",1
"21/10/22","20:30",0.0,13.6,76.3,1010.2,335.4,2.6,5.1,347.5,0.00,9.6,18.1,"20:28:26",1
"21/10/22","20:40",0.0,13.4,77.5,1010.4,332.9,2.3,4.0,344.2,0.00,9.6,18.0,"20:36:52",1
"21/10/22","20:50",0.0,13.3,78.3,1010.7,334.7,2.5,4.8,323.6,0.00,9.6,17.9,"20:43:14",1
"21/10/22","21:00",0.0,13.4,78.2,1010.4,336.7,3.1,4.8,338.8,0.00,9.7,17.6,"20:59:58",1
"21/10/22","21:10",0.0,13.5,77.5,1010.2,337.1,3.1,6.8,327.6,0.00,9.7,17.8,"21:04:10",1
"21/10/22","21:20",0.0,13.5,76.9,1010.4,330.9,3.1,6.7,337.1,0.00,9.6,17.9,"21:16:40",1
"21/10/22","21:30",0.0,13.5,76.7,1010.7,329.5,3.0,5.9,347.6,0.00,9.5,17.7,"21:28:26",1
"21/10/22","21:40",0.0,13.4,76.5,1010.4,329.4,3.5,7.3,324.8,0.00,9.4,17.7,"21:36:32",1
"21/10/22","21:50",0.0,13.4,75.5,1010.7,326.8,3.4,6.0,341.8,0.00,9.2,17.7,"21:42:06",1
"21/10/22","22:00",0.0,13.5,73.9,1010.7,332.9,2.7,4.8,334.0,0.00,9.0,17.6,"21:57:44",1
"21/10/22","22:10",0.0,13.6,72.7,1011.2,343.1,2.2,5.4,343.4,0.00,8.8,17.7,"22:06:26",1
"21/10/22","22:20",0.0,13.4,72.2,1010.9,334.9,2.0,4.1,309.2,0.00,8.5,17.6,"22:13:00",1
"21/10/22","22:30",0.0,13.6,71.3,1010.9,325.2,2.8,6.6,328.7,0.00,8.5,17.7,"22:26:10",1
"21/10/22","22:40",0.0,13.7,69.9,1011.2,329.0,2.1,4.7,324.5,0.00,8.4,17.6,"22:33:50",1
"21/10/22","22:50",0.0,13.7,68.4,1010.9,334.1,2.1,3.6,347.4,0.00,8.0,17.5,"22:42:26",1
"21/10/22","23:00",0.0,13.9,66.8,1011.4,333.7,2.5,6.5,316.0,0.00,7.9,17.5,"22:56:32",1
"21/10/22","23:10",0.0,13.8,66.4,1011.6,294.6,1.7,4.4,327.2,0.00,7.7,17.4,"23:01:48",1
"21/10/22","23:20",0.0,13.7,67.5,1011.4,294.2,1.8,4.5,234.2,0.00,7.8,17.3,"23:17:50",1
"21/10/22","23:30",0.0,13.6,68.9,1011.9,279.9,1.2,1.9,256.0,0.00,8.0,17.4,"23:20:26",1
"21/10/22","23:40",0.0,13.4,71.0,1011.9,258.8,1.3,2.2,254.6,0.00,8.3,17.2,"23:37:26",1
"21/10/22","23:50",0.0,13.4,72.7,1012.1,244.8,1.7,3.7,231.0,0.00,8.6,17.2,"23:43:30",1
"21/10/22","24:00",0.0,13.2,73.6,1012.3,276.6,2.0,3.2,245.5,0.00,8.6,17.3,"23:54:52",1
